| time (UTC) | temp C | wind direction | speed KPH | gust KPH | rain 1hr cm | rain 24hr cm | rain mn cm | humidity % | barometer mb |
| 20260505041129 | 11 | 315 | 4.8 | 9.7 | 0.00 | 0.00 | 0.00 | 74 | 1015.4 |
| 20260505040124 | 11 | 315 | 0.0 | 3.2 | 0.00 | 0.00 | 0.00 | 74 | 1015.1 |
| 20260505035100 | 11 | 0.0 | 1.6 | 0.00 | 0.00 | 0.00 | 74 | 1015.2 | |
| 20260505034116 | 11 | 315 | 1.6 | 3.2 | 0.00 | 0.00 | 0.00 | 74 | 1015.2 |
| 20260505033051 | 11 | 315 | 1.6 | 4.8 | 0.00 | 0.00 | 0.00 | 74 | 1015.3 |
| 20260505032047 | 11 | 315 | 1.6 | 4.8 | 0.00 | 0.00 | 0.00 | 73 | 1015.4 |
| 20260505031103 | 11 | 315 | 1.6 | 3.2 | 0.00 | 0.00 | 0.00 | 72 | 1015.3 |
| 20260505030038 | 11 | 315 | 0.0 | 3.2 | 0.00 | 0.00 | 0.00 | 73 | 1015.3 |
| 20260505025104 | 11 | 315 | 3.2 | 4.8 | 0.00 | 0.00 | 0.00 | 74 | 1015.3 |
| 20260505024101 | 11 | 315 | 1.6 | 4.8 | 0.00 | 0.00 | 0.00 | 75 | 1015.3 |
| 20260505023056 | 11 | 315 | 3.2 | 4.8 | 0.00 | 0.00 | 0.00 | 76 | 1015.6 |
| 20260505022111 | 11 | 0.0 | 1.6 | 0.00 | 0.00 | 0.00 | 75 | 1015.6 | |
| 20260505021047 | 11 | 315 | 1.6 | 4.8 | 0.00 | 0.00 | 0.00 | 75 | 1015.8 |
| 20260505020043 | 11 | 315 | 0.0 | 1.6 | 0.00 | 0.00 | 0.00 | 75 | 1016.0 |
| 20260505015039 | 11 | 315 | 0.0 | 3.2 | 0.00 | 0.00 | 0.00 | 75 | 1016.1 |
| 20260505014034 | 11 | 315 | 1.6 | 4.8 | 0.00 | 0.00 | 0.00 | 75 | 1016.1 |
| 20260505013051 | 11 | 315 | 1.6 | 3.2 | 0.00 | 0.00 | 0.00 | 75 | 1016.1 |
| 20260505012026 | 11 | 315 | 0.0 | 3.2 | 0.00 | 0.00 | 0.00 | 75 | 1016.3 |
| 20260505011021 | 11 | 315 | 1.6 | 3.2 | 0.00 | 0.00 | 0.00 | 74 | 1016.4 |
| 20260505010038 | 11 | 0.0 | 3.2 | 0.00 | 0.00 | 0.00 | 73 | 1016.5 | |
| 20260505005113 | 11 | 315 | 0.0 | 3.2 | 0.00 | 0.00 | 0.00 | 72 | 1016.5 |
| 20260505004110 | 11 | 315 | 0.0 | 3.2 | 0.00 | 0.00 | 0.00 | 73 | 1016.7 |
| 20260505003105 | 11 | 0.0 | 0.0 | 0.00 | 0.00 | 0.00 | 73 | 1016.8 | |
| 20260505002100 | 11 | 0.0 | 0.0 | 0.00 | 0.00 | 0.00 | 73 | 1016.9 | |
| 20260505001057 | 11 | 0.0 | 0.0 | 0.00 | 0.00 | 0.00 | 72 | 1017.0 | |
| 20260505000052 | 11 | 315 | 0.0 | 3.2 | 0.00 | 0.00 | 0.00 | 72 | 1016.9 |
| 20260504235048 | 11 | 0.0 | 0.0 | 0.00 | 0.00 | 0.00 | 72 | 1017.3 | |
| 20260504234104 | 11 | 0.0 | 0.0 | 0.00 | 0.00 | 0.00 | 72 | 1017.2 | |
| 20260504233039 | 11 | 315 | 0.0 | 3.2 | 0.00 | 0.00 | 0.00 | 71 | 1017.3 |
| 20260504232035 | 11 | 0.0 | 0.0 | 0.00 | 0.00 | 0.00 | 71 | 1017.4 | |
| 20260504231052 | 11 | 0.0 | 0.0 | 0.00 | 0.00 | 0.00 | 71 | 1017.4 | |
| 20260504230047 | 11 | 0.0 | 0.0 | 0.00 | 0.00 | 0.00 | 71 | 1017.5 | |
| 20260504225022 | 11 | 0.0 | 1.6 | 0.00 | 0.00 | 0.00 | 71 | 1017.7 | |
| 20260504224018 | 11 | 0.0 | 3.2 | 0.00 | 0.00 | 0.00 | 71 | 1017.6 | |
| 20260504223114 | 11 | 0.0 | 0.0 | 0.00 | 0.00 | 0.00 | 70 | 1017.5 | |
| 20260504222110 | 11 | 315 | 1.6 | 3.2 | 0.00 | 0.00 | 0.00 | 71 | 1017.7 |
| 20260504221126 | 11 | 315 | 1.6 | 4.8 | 0.00 | 0.00 | 0.00 | 71 | 1017.8 |
| 20260504215057 | 11 | 315 | 1.6 | 4.8 | 0.00 | 0.00 | 0.00 | 70 | 1017.9 |
| 20260504214052 | 11 | 315 | 3.2 | 6.4 | 0.00 | 0.00 | 0.00 | 70 | 1017.8 |
| 20260504213048 | 11 | 315 | 1.6 | 3.2 | 0.00 | 0.00 | 0.00 | 70 | 1017.9 |
| 20260504212044 | 11 | 0.0 | 0.0 | 0.00 | 0.00 | 0.00 | 68 | 1017.9 | |
| 20260504211040 | 11 | 0.0 | 0.0 | 0.00 | 0.00 | 0.00 | 67 | 1017.9 | |
| 20260504210116 | 11 | 0.0 | 1.6 | 0.00 | 0.00 | 0.00 | 67 | 1018.1 | |
| 20260504205031 | 12 | 0.0 | 1.6 | 0.00 | 0.00 | 0.00 | 66 | 1017.8 | |
| 20260504204027 | 12 | 315 | 3.2 | 4.8 | 0.00 | 0.00 | 0.00 | 65 | 1017.9 |
| 20260504203023 | 12 | 315 | 1.6 | 3.2 | 0.00 | 0.00 | 0.00 | 61 | 1017.9 |
| 20260504202019 | 13 | 315 | 3.2 | 6.4 | 0.00 | 0.00 | 0.00 | 60 | 1017.8 |
| 20260504201115 | 13 | 315 | 1.6 | 4.8 | 0.00 | 0.00 | 0.00 | 60 | 1017.7 |
| 20260504200110 | 13 | 315 | 1.6 | 4.8 | 0.00 | 0.00 | 0.00 | 60 | 1017.7 |
| 20260504195106 | 13 | 315 | 3.2 | 3.2 | 0.00 | 0.00 | 0.00 | 59 | 1017.5 |
| 20260504194104 | 13 | 0.0 | 1.6 | 0.00 | 0.00 | 0.00 | 59 | 1017.6 | |
| 20260504193058 | 14 | 0.0 | 0.0 | 0.00 | 0.00 | 0.00 | 58 | 1017.5 | |
| 20260504192107 | 15 | 315 | 1.6 | 3.2 | 0.00 | 0.00 | 0.00 | 58 | 1017.4 |
| 20260504191052 | 15 | 0.0 | 0.0 | 0.00 | 0.00 | 0.00 | 58 | 1017.4 | |
| 20260504190047 | 15 | 0.0 | 0.0 | 0.00 | 0.00 | 0.00 | 57 | 1017.2 | |
| 20260504185041 | 16 | 315 | 1.6 | 4.8 | 0.00 | 0.00 | 0.00 | 54 | 1017.0 |
| 20260504184037 | 16 | 315 | 0.0 | 3.2 | 0.00 | 0.00 | 0.00 | 53 | 1017.0 |
| 20260504183032 | 16 | 315 | 1.6 | 3.2 | 0.00 | 0.00 | 0.00 | 53 | 1017.1 |
| 20260504182108 | 16 | 315 | 1.6 | 3.2 | 0.00 | 0.00 | 0.00 | 52 | 1017.0 |
| 20260504181024 | 16 | 315 | 3.2 | 4.8 | 0.00 | 0.00 | 0.00 | 52 | 1016.9 |
| 20260504180020 | 17 | 315 | 1.6 | 3.2 | 0.00 | 0.00 | 0.00 | 46 | 1016.8 |
| 20260504175015 | 17 | 315 | 3.2 | 6.4 | 0.00 | 0.00 | 0.00 | 44 | 1016.7 |
| 20260504174112 | 17 | 315 | 3.2 | 6.4 | 0.00 | 0.00 | 0.00 | 44 | 1016.7 |
| 20260504173127 | 17 | 315 | 3.2 | 6.4 | 0.00 | 0.00 | 0.00 | 44 | 1016.8 |
| 20260504172103 | 18 | 315 | 1.6 | 6.4 | 0.00 | 0.00 | 0.00 | 46 | 1016.8 |
| 20260504171058 | 18 | 315 | 1.6 | 3.2 | 0.00 | 0.00 | 0.00 | 45 | 1016.7 |
| 20260504151128 | 19 | 0 | 9.7 | 14.5 | 0.00 | 0.00 | 0.00 | 42 | 1016.7 |
| 20260504150103 | 20 | 0 | 6.4 | 12.9 | 0.00 | 0.00 | 0.00 | 41 | 1016.7 |
| 20260504141102 | 21 | 315 | 9.7 | 14.5 | 0.00 | 0.00 | 0.00 | 37 | 1016.7 |
| 20260504130111 | 20 | 315 | 11.3 | 17.7 | 0.00 | 0.00 | 0.00 | 32 | 1017.4 |
| 20260504100115 | 18 | 315 | 6.4 | 9.7 | 0.00 | 0.00 | 0.00 | 50 | 1018.8 |
| 20260504081108 | 15 | 315 | 1.6 | 6.4 | 0.00 | 0.00 | 0.00 | 64 | 1019.4 |
| 20260504080103 | 14 | 315 | 3.2 | 6.4 | 0.00 | 0.00 | 0.00 | 66 | 1019.3 |
| 20260504060112 | 9 | 0.0 | 0.0 | 0.00 | 0.00 | 0.00 | 83 | 1019.3 |